time, Switch, Flow(0), Analog(2)
yyyy/mm/dd HH:MM:SS.fff, True=FILTERED|False=TOTAL, L/min, V
2023/07/04 05:00:01.427, True, 4.976, 0.126345
2023/07/04 05:00:01.931, True, 4.640, 0.127565
2023/07/04 05:00:02.435, True, 4.974, 0.129625
2023/07/04 05:00:02.931, True, 4.719, 0.126879
2023/07/04 05:00:03.435, True, 4.642, 0.128252
2023/07/04 05:00:03.939, True, 4.310, 0.125963
2023/07/04 05:00:04.435, True, 2.696, 0.126650
2023/07/04 05:00:04.939, True, 1.326, 0.126268
2023/07/04 05:00:05.443, True, 1.326, 0.128939
2023/07/04 05:00:05.939, True, 1.348, 0.128328
2023/07/04 05:00:06.443, True, 0.995, 0.125505
2023/07/04 05:00:06.947, True, 1.326, 0.129091
2023/07/04 05:00:07.451, True, 0.995, 0.127489
2023/07/04 05:00:07.947, True, 1.349, 0.128405
2023/07/04 05:00:08.451, True, 0.994, 0.127184
2023/07/04 05:00:08.947, True, 1.348, 0.126879
2023/07/04 05:00:09.451, True, 0.995, 0.130388
2023/07/04 05:00:09.955, True, 1.326, 0.127871
2023/07/04 05:00:10.451, True, 1.011, 0.128328
2023/07/04 05:00:10.955, True, 1.326, 0.129320
2023/07/04 05:00:11.459, True, 0.995, 0.130770
2023/07/04 05:00:11.955, True, 1.011, 0.128786
2023/07/04 05:00:12.459, True, 1.326, 0.128405
2023/07/04 05:00:12.963, True, 0.995, 0.129702
2023/07/04 05:00:13.459, True, 1.347, 0.128634
2023/07/04 05:00:13.963, True, 0.995, 0.129015
2023/07/04 05:00:14.467, True, 1.327, 0.130312
2023/07/04 05:00:14.963, True, 1.011, 0.128405
2023/07/04 05:00:15.467, True, 0.995, 0.128099
2023/07/04 05:00:15.971, True, 1.326, 0.127337
2023/07/04 05:00:16.467, True, 1.012, 0.128023
2023/07/04 05:00:16.971, True, 1.325, 0.129320
2023/07/04 05:00:17.475, True, 0.995, 0.127565
2023/07/04 05:00:17.971, True, 1.347, 0.127794
2023/07/04 05:00:18.475, True, 0.996, 0.128176
2023/07/04 05:00:18.979, True, 0.995, 0.129091
2023/07/04 05:00:19.475, True, 1.346, 0.128481
2023/07/04 05:00:19.979, True, 1.329, 0.127031
2023/07/04 05:00:20.483, True, 0.994, 0.128710
2023/07/04 05:00:20.979, True, 1.009, 0.128862
2023/07/04 05:00:21.482, True, 1.326, 0.127871
2023/07/04 05:00:21.987, True, 0.995, 0.128557
2023/07/04 05:00:22.483, True, 1.012, 0.129320
2023/07/04 05:00:22.987, True, 1.325, 0.128481
2023/07/04 05:00:23.491, True, 0.995, 0.129091
2023/07/04 05:00:23.987, True, 1.348, 0.129931
2023/07/04 05:00:24.491, True, 1.327, 0.126040
2023/07/04 05:00:24.995, True, 0.996, 0.129244
2023/07/04 05:00:25.499, True, 1.324, 0.127413
2023/07/04 05:00:25.995, True, 1.011, 0.128023
2023/07/04 05:00:26.499, True, 0.995, 0.127642
2023/07/04 05:00:27.003, True, 1.326, 0.129778
2023/07/04 05:00:27.499, True, 1.011, 0.129702
2023/07/04 05:00:28.003, True, 1.326, 0.127337
2023/07/04 05:00:28.507, True, 0.996, 0.127794
2023/07/04 05:00:29.003, True, 1.010, 0.127642
2023/07/04 05:00:29.507, True, 1.328, 0.128099
2023/07/04 05:00:30.011, True, 0.993, 0.129168
2023/07/04 05:00:30.507, True, 1.348, 0.127031
2023/07/04 05:00:31.011, True, 0.995, 0.126345
2023/07/04 05:00:31.515, True, 1.326, 0.127642
2023/07/04 05:00:32.011, True, 1.011, 0.127565
2023/07/04 05:00:32.515, True, 1.326, 0.128099
2023/07/04 05:00:33.019, True, 0.995, 0.128634
2023/07/04 05:00:33.515, True, 1.350, 0.127489
2023/07/04 05:00:34.019, True, 0.993, 0.127565
2023/07/04 05:00:34.515, True, 1.348, 0.127947
2023/07/04 05:00:35.019, True, 0.995, 0.126421
2023/07/04 05:00:35.523, True, 0.994, 0.129397
2023/07/04 05:00:36.019, True, 1.348, 0.126421
2023/07/04 05:00:36.523, True, 0.995, 0.127108
2023/07/04 05:00:37.027, True, 1.326, 0.126574
2023/07/04 05:00:37.523, True, 1.012, 0.127871
2023/07/04 05:00:38.027, True, 0.996, 0.126497
2023/07/04 05:00:38.531, True, 1.323, 0.128939
2023/07/04 05:00:39.027, True, 1.348, 0.126955
2023/07/04 05:00:39.531, True, 0.995, 0.128786
2023/07/04 05:00:40.035, True, 0.994, 0.129244
2023/07/04 05:00:40.531, True, 1.348, 0.128481
2023/07/04 05:00:41.035, True, 0.995, 0.128252
2023/07/04 05:00:41.531, True, 1.011, 0.127871
2023/07/04 05:00:42.035, True, 1.326, 0.128328
2023/07/04 05:00:42.538, True, 0.997, 0.126879
2023/07/04 05:00:43.035, True, 1.346, 0.126650
2023/07/04 05:00:43.539, True, 1.325, 0.129244
2023/07/04 05:00:44.043, True, 0.997, 0.128939
2023/07/04 05:00:44.539, True, 1.346, 0.127337
2023/07/04 05:00:45.043, True, 0.994, 0.128252
2023/07/04 05:00:45.547, True, 0.995, 0.127642
2023/07/04 05:00:46.043, True, 1.349, 0.129015
2023/07/04 05:00:46.547, True, 0.994, 0.128176
2023/07/04 05:00:47.051, True, 1.328, 0.128634
2023/07/04 05:00:47.547, True, 1.011, 0.129778
2023/07/04 05:00:48.051, True, 0.994, 0.128786
2023/07/04 05:00:48.555, True, 1.328, 0.127642
2023/07/04 05:00:49.051, True, 1.010, 0.130083
2023/07/04 05:00:49.555, True, 1.329, 0.128786
2023/07/04 05:00:50.059, True, 0.995, 0.127260
2023/07/04 05:00:50.563, True, 1.325, 0.128023
2023/07/04 05:00:51.059, True, 1.011, 0.129168
2023/07/04 05:00:51.563, True, 1.329, 0.128939
2023/07/04 05:00:52.059, True, 1.010, 0.130159
2023/07/04 05:00:52.563, True, 0.994, 0.127794
2023/07/04 05:00:53.067, True, 1.329, 0.131228
2023/07/04 05:00:53.563, True, 1.009, 0.129702
2023/07/04 05:00:54.066, True, 1.329, 0.126879
2023/07/04 05:00:54.571, True, 0.993, 0.130007
2023/07/04 05:00:55.067, True, 1.348, 0.129015
2023/07/04 05:00:55.570, True, 0.995, 0.127565
2023/07/04 05:00:56.075, True, 1.327, 0.129320
2023/07/04 05:00:56.579, True, 1.326, 0.131151
2023/07/04 05:00:57.075, True, 1.011, 0.128557
2023/07/04 05:00:57.579, True, 1.326, 0.129778
2023/07/04 05:00:58.075, True, 1.011, 0.129397
2023/07/04 05:00:58.579, True, 0.995, 0.128939
2023/07/04 05:00:59.083, True, 1.326, 0.128634
2023/07/04 05:00:59.579, True, 1.012, 0.129549
2023/07/04 05:01:00.083, True, 1.325, 0.129778
2023/07/04 05:01:00.587, True, 1.328, 0.130999
2023/07/04 05:01:01.083, True, 1.010, 0.129854
2023/07/04 05:01:01.587, True, 1.326, 0.129778
2023/07/04 05:01:02.091, True, 0.996, 0.131456
2023/07/04 05:01:02.587, True, 1.010, 0.130617
2023/07/04 05:01:03.091, True, 1.326, 0.131914
2023/07/04 05:01:03.594, True, 0.997, 0.129931
2023/07/04 05:01:04.091, True, 1.010, 0.130770
2023/07/04 05:01:04.595, True, 1.326, 0.132525
2023/07/04 05:01:05.099, True, 1.327, 0.132906
2023/07/04 05:01:05.595, True, 1.011, 0.131609
2023/07/04 05:01:06.099, True, 1.326, 0.130846
2023/07/04 05:01:06.603, True, 0.994, 0.131762
2023/07/04 05:01:07.099, True, 1.350, 0.132448
2023/07/04 05:01:07.603, True, 0.995, 0.133364
2023/07/04 05:01:08.107, True, 1.326, 0.131380
2023/07/04 05:01:08.603, True, 1.009, 0.130922
2023/07/04 05:01:09.107, True, 0.997, 0.132143
2023/07/04 05:01:09.610, True, 0.994, 0.132448
2023/07/04 05:01:10.107, True, 1.346, 0.130999
2023/07/04 05:01:10.611, True, 0.995, 0.131762
2023/07/04 05:01:11.115, True, 1.329, 0.131838
2023/07/04 05:01:11.611, True, 1.011, 0.130617
2023/07/04 05:01:12.115, True, 1.327, 0.132067
2023/07/04 05:01:12.619, True, 0.993, 0.130159
2023/07/04 05:01:13.123, True, 1.327, 0.130694
2023/07/04 05:01:13.619, True, 1.012, 0.133898
2023/07/04 05:01:14.123, True, 1.325, 0.130007
2023/07/04 05:01:14.627, True, 0.995, 0.132219
2023/07/04 05:01:15.123, True, 1.348, 0.130922
2023/07/04 05:01:15.627, True, 0.995, 0.132448
2023/07/04 05:01:16.123, True, 1.011, 0.130007
2023/07/04 05:01:16.627, True, 1.328, 0.132296
2023/07/04 05:01:17.131, True, 1.324, 0.132448
2023/07/04 05:01:17.627, True, 1.011, 0.130159
2023/07/04 05:01:18.131, True, 1.328, 0.133974
2023/07/04 05:01:18.635, True, 0.993, 0.133669
2023/07/04 05:01:19.139, True, 1.327, 0.135042
2023/07/04 05:01:19.635, True, 1.011, 0.133669
2023/07/04 05:01:20.139, True, 1.326, 0.135195
2023/07/04 05:01:20.643, True, 0.995, 0.132601
2023/07/04 05:01:21.147, True, 0.995, 0.133211
2023/07/04 05:01:21.643, True, 1.348, 0.134585
2023/07/04 05:01:22.148, True, 0.995, 0.131609
2023/07/04 05:01:22.651, True, 1.326, 0.131228
2023/07/04 05:01:23.147, True, 1.011, 0.132143
2023/07/04 05:01:23.651, True, 1.326, 0.133364
2023/07/04 05:01:24.155, True, 0.995, 0.134127
2023/07/04 05:01:24.651, True, 1.348, 0.131838
2023/07/04 05:01:25.155, True, 0.995, 0.132753
2023/07/04 05:01:25.659, True, 1.327, 0.131914
2023/07/04 05:01:26.155, True, 1.011, 0.133822
2023/07/04 05:01:26.659, True, 1.326, 0.133822
2023/07/04 05:01:27.163, True, 0.995, 0.133745
2023/07/04 05:01:27.659, True, 1.348, 0.133135
2023/07/04 05:01:28.163, True, 0.995, 0.133516
2023/07/04 05:01:28.667, True, 1.326, 0.136492
2023/07/04 05:01:29.163, True, 1.011, 0.134356
2023/07/04 05:01:29.667, True, 1.327, 0.134432
2023/07/04 05:01:30.163, True, 1.010, 0.131533
2023/07/04 05:01:30.668, True, 1.327, 0.133288
2023/07/04 05:01:31.171, True, 1.327, 0.135042
2023/07/04 05:01:31.667, True, 1.011, 0.132067
2023/07/04 05:01:32.171, True, 1.326, 0.132525
2023/07/04 05:01:32.676, True, 0.995, 0.132296
2023/07/04 05:01:33.179, True, 1.327, 0.133059
2023/07/04 05:01:33.675, True, 1.011, 0.131838
2023/07/04 05:01:34.179, True, 0.995, 0.134203
2023/07/04 05:01:34.683, True, 1.326, 0.132601
2023/07/04 05:01:35.179, True, 1.011, 0.133822
2023/07/04 05:01:35.683, True, 1.327, 0.130770
2023/07/04 05:01:36.179, True, 1.011, 0.132525
2023/07/04 05:01:36.682, True, 1.326, 0.135958
2023/07/04 05:01:37.187, True, 0.995, 0.134432
2023/07/04 05:01:37.683, True, 1.348, 0.133822
2023/07/04 05:01:38.187, True, 0.995, 0.133364
2023/07/04 05:01:38.691, True, 1.327, 0.131609
2023/07/04 05:01:39.187, True, 1.348, 0.132143
2023/07/04 05:01:39.691, True, 0.994, 0.134585
2023/07/04 05:01:40.195, True, 1.326, 0.134051
2023/07/04 05:01:40.691, True, 1.011, 0.136263
2023/07/04 05:01:41.195, True, 0.996, 0.134585
2023/07/04 05:01:41.699, True, 1.326, 0.132982
2023/07/04 05:01:42.203, True, 0.994, 0.133364
2023/07/04 05:01:42.700, True, 1.348, 0.133059
2023/07/04 05:01:43.203, True, 1.326, 0.134127
2023/07/04 05:01:43.707, True, 0.995, 0.134432
2023/07/04 05:01:44.203, True, 1.011, 0.133135
2023/07/04 05:01:44.707, True, 1.327, 0.133440
2023/07/04 05:01:45.211, True, 0.994, 0.135882
2023/07/04 05:01:45.715, True, 1.327, 0.132982
2023/07/04 05:01:46.211, True, 1.011, 0.135805
2023/07/04 05:01:46.715, True, 0.995, 0.134737
2023/07/04 05:01:47.220, True, 1.327, 0.133898
2023/07/04 05:01:47.715, True, 1.011, 0.133440
2023/07/04 05:01:48.219, True, 0.995, 0.135042
2023/07/04 05:01:48.723, True, 1.327, 0.133822
2023/07/04 05:01:49.219, True, 1.011, 0.135576
2023/07/04 05:01:49.723, True, 1.326, 0.134127
2023/07/04 05:01:50.227, True, 1.327, 0.133974
2023/07/04 05:01:50.723, True, 1.011, 0.132677
2023/07/04 05:01:51.227, True, 0.995, 0.133288
2023/07/04 05:01:51.731, True, 1.326, 0.133974
2023/07/04 05:01:52.227, True, 1.011, 0.135500
2023/07/04 05:01:52.731, True, 1.327, 0.135958
2023/07/04 05:01:53.235, True, 0.995, 0.131762
2023/07/04 05:01:53.731, True, 1.348, 0.134508
2023/07/04 05:01:54.235, True, 0.995, 0.132677
2023/07/04 05:01:54.731, True, 1.348, 0.132219
2023/07/04 05:01:55.235, True, 1.326, 0.132677
2023/07/04 05:01:55.739, True, 0.995, 0.132906
2023/07/04 05:01:56.243, True, 1.327, 0.134279
2023/07/04 05:01:56.739, True, 1.011, 0.134356
2023/07/04 05:01:57.243, True, 1.329, 0.132982
2023/07/04 05:01:57.747, True, 0.993, 0.134585
2023/07/04 05:01:58.243, True, 1.348, 0.135576
2023/07/04 05:01:58.747, True, 0.995, 0.132601
2023/07/04 05:01:59.251, True, 1.327, 0.134356
2023/07/04 05:01:59.748, True, 1.011, 0.133364
2023/07/04 05:02:00.251, True, 1.327, 0.133059
2023/07/04 05:02:00.755, True, 0.995, 0.133974
2023/07/04 05:02:01.251, True, 1.349, 0.132143
2023/07/04 05:02:01.755, True, 0.995, 0.133593
2023/07/04 05:02:02.251, True, 1.348, 0.132067
2023/07/04 05:02:02.755, True, 0.993, 0.133745
2023/07/04 05:02:03.259, True, 1.327, 0.132448
2023/07/04 05:02:03.763, True, 0.994, 0.132296
2023/07/04 05:02:04.259, True, 1.349, 0.133135
2023/07/04 05:02:04.763, True, 0.994, 0.131914
2023/07/04 05:02:05.259, True, 1.348, 0.136339
2023/07/04 05:02:05.763, True, 0.997, 0.134661
2023/07/04 05:02:06.267, True, 1.324, 0.133440
2023/07/04 05:02:06.771, True, 0.995, 0.132372
2023/07/04 05:02:07.267, True, 1.348, 0.133135
2023/07/04 05:02:07.771, True, 0.995, 0.131304
2023/07/04 05:02:08.275, True, 0.995, 0.133364
2023/07/04 05:02:08.771, True, 1.347, 0.131151
2023/07/04 05:02:09.275, True, 1.326, 0.132525
2023/07/04 05:02:09.779, True, 0.995, 0.134966
2023/07/04 05:02:10.275, True, 1.348, 0.134127
2023/07/04 05:02:10.779, True, 0.995, 0.132753
2023/07/04 05:02:11.283, True, 0.995, 0.134051
2023/07/04 05:02:11.779, True, 1.348, 0.133440
2023/07/04 05:02:12.283, True, 0.995, 0.132753
2023/07/04 05:02:12.787, True, 1.327, 0.135576
2023/07/04 05:02:13.291, True, 0.995, 0.131304
2023/07/04 05:02:13.787, True, 1.348, 0.134127
2023/07/04 05:02:14.291, True, 0.995, 0.132830
2023/07/04 05:02:14.795, True, 1.327, 0.134051
2023/07/04 05:02:15.291, True, 1.011, 0.134279
2023/07/04 05:02:15.795, True, 1.327, 0.134813
2023/07/04 05:02:16.299, True, 0.995, 0.133974
2023/07/04 05:02:16.795, True, 1.011, 0.133974
2023/07/04 05:02:17.299, True, 1.327, 0.133135
2023/07/04 05:02:17.803, True, 0.996, 0.133669
2023/07/04 05:02:18.299, True, 1.346, 0.130541
2023/07/04 05:02:18.803, True, 0.995, 0.135195
2023/07/04 05:02:19.307, True, 0.995, 0.134356
2023/07/04 05:02:19.803, True, 1.348, 0.133974
2023/07/04 05:02:20.307, True, 1.326, 0.133516
2023/07/04 05:02:20.811, True, 0.996, 0.135805
2023/07/04 05:02:21.307, True, 1.348, 0.135119
2023/07/04 05:02:21.811, True, 0.994, 0.130922
2023/07/04 05:02:22.315, True, 1.326, 0.131228
2023/07/04 05:02:22.819, True, 0.995, 0.132448
2023/07/04 05:02:23.315, True, 1.011, 0.132906
2023/07/04 05:02:23.819, True, 0.995, 0.132906
2023/07/04 05:02:24.315, True, 1.349, 0.131151
2023/07/04 05:02:24.819, True, 0.994, 0.133440
2023/07/04 05:02:25.323, True, 1.327, 0.133822
2023/07/04 05:02:25.819, True, 1.010, 0.134508
2023/07/04 05:02:26.322, True, 1.326, 0.132601
2023/07/04 05:02:26.819, True, 1.011, 0.132448
2023/07/04 05:02:27.323, True, 0.996, 0.134203
2023/07/04 05:02:27.827, True, 1.326, 0.132448
2023/07/04 05:02:28.331, True, 0.995, 0.134432
2023/07/04 05:02:28.827, True, 1.348, 0.134585
2023/07/04 05:02:29.331, True, 0.995, 0.132906
2023/07/04 05:02:29.835, True, 1.326, 0.133974
2023/07/04 05:02:30.331, True, 1.348, 0.134203
2023/07/04 05:02:30.835, True, 0.995, 0.132753
2023/07/04 05:02:31.339, True, 1.326, 0.135042
2023/07/04 05:02:31.835, True, 1.011, 0.133593
2023/07/04 05:02:32.339, True, 0.994, 0.133516
2023/07/04 05:02:32.843, True, 0.997, 0.133822
2023/07/04 05:02:33.339, True, 1.347, 0.132982
2023/07/04 05:02:33.843, True, 0.995, 0.132677
2023/07/04 05:02:34.339, True, 1.010, 0.135348
2023/07/04 05:02:34.843, True, 1.329, 0.134737
2023/07/04 05:02:35.347, True, 0.995, 0.133135
2023/07/04 05:02:35.843, True, 1.345, 0.132143
2023/07/04 05:02:36.347, True, 0.995, 0.132448
2023/07/04 05:02:36.850, True, 1.326, 0.134432
2023/07/04 05:02:37.347, True, 1.011, 0.133440
2023/07/04 05:02:37.851, True, 1.327, 0.133745
2023/07/04 05:02:38.355, True, 0.994, 0.131456
2023/07/04 05:02:38.859, True, 0.994, 0.133440
2023/07/04 05:02:39.355, True, 1.348, 0.132677
2023/07/04 05:02:39.858, True, 0.995, 0.131456
2023/07/04 05:02:40.363, True, 1.326, 0.131762
2023/07/04 05:02:40.859, True, 1.011, 0.135348
2023/07/04 05:02:41.363, True, 0.995, 0.132830
2023/07/04 05:02:41.867, True, 1.327, 0.132448
2023/07/04 05:02:42.363, True, 1.011, 0.133593
2023/07/04 05:02:42.866, True, 1.327, 0.132296
2023/07/04 05:02:43.363, True, 1.010, 0.134051
2023/07/04 05:02:43.867, True, 1.327, 0.132372
2023/07/04 05:02:44.371, True, 0.994, 0.132296
2023/07/04 05:02:44.867, True, 1.011, 0.131685
2023/07/04 05:02:45.371, True, 1.328, 0.133364
2023/07/04 05:02:45.875, True, 0.994, 0.132372
2023/07/04 05:02:46.379, True, 1.326, 0.132067
2023/07/04 05:02:46.875, True, 1.012, 0.134737
2023/07/04 05:02:47.379, True, 0.994, 0.132296
2023/07/04 05:02:47.883, True, 1.326, 0.133669
2023/07/04 05:02:48.379, True, 1.011, 0.135729
2023/07/04 05:02:48.883, True, 0.995, 0.134279
2023/07/04 05:02:49.379, True, 1.348, 0.133211
2023/07/04 05:02:49.883, True, 0.995, 0.133745
2023/07/04 05:02:50.387, True, 1.327, 0.132982
2023/07/04 05:02:50.883, True, 1.011, 0.133593
2023/07/04 05:02:51.388, True, 0.995, 0.132525
2023/07/04 05:02:51.891, True, 1.327, 0.133211
2023/07/04 05:02:52.387, True, 1.011, 0.132753
2023/07/04 05:02:52.891, True, 1.326, 0.132525
2023/07/04 05:02:53.396, True, 1.327, 0.131991
2023/07/04 05:02:53.891, True, 1.011, 0.131685
2023/07/04 05:02:54.395, True, 1.326, 0.132906
2023/07/04 05:02:54.899, True, 0.995, 0.134127
2023/07/04 05:02:55.395, True, 1.348, 0.132448
2023/07/04 05:02:55.899, True, 0.994, 0.133211
2023/07/04 05:02:56.403, True, 1.327, 0.134127
2023/07/04 05:02:56.899, True, 1.011, 0.134508
2023/07/04 05:02:57.403, True, 0.996, 0.133288
2023/07/04 05:02:57.908, True, 1.324, 0.132677
2023/07/04 05:02:58.411, True, 0.997, 0.132601
2023/07/04 05:02:58.907, True, 1.345, 0.132830
2023/07/04 05:02:59.412, True, 0.995, 0.132906
2023/07/04 05:02:59.916, True, 1.326, 0.131762
2023/07/04 05:03:00.412, True, 1.011, 0.134661
2023/07/04 05:03:00.915, True, 1.326, 0.133288
2023/07/04 05:03:01.411, True, 1.011, 0.131151
2023/07/04 05:03:01.915, True, 1.326, 0.130312
2023/07/04 05:03:02.420, True, 0.995, 0.133516
2023/07/04 05:03:02.916, True, 1.011, 0.133822
2023/07/04 05:03:03.420, True, 1.327, 0.133440
2023/07/04 05:03:03.924, True, 0.995, 0.133822
2023/07/04 05:03:04.419, True, 1.011, 0.133516
2023/07/04 05:03:04.923, True, 1.326, 0.133593
2023/07/04 05:03:05.427, True, 0.995, 0.131609
2023/07/04 05:03:05.923, True, 1.348, 0.132830
2023/07/04 05:03:06.428, True, 0.995, 0.132525
2023/07/04 05:03:06.931, True, 1.326, 0.135882
2023/07/04 05:03:07.427, True, 1.011, 0.132296
2023/07/04 05:03:07.931, True, 0.995, 0.132753
2023/07/04 05:03:08.435, True, 1.326, 0.132372
2023/07/04 05:03:08.931, True, 1.011, 0.130312
2023/07/04 05:03:09.435, True, 1.326, 0.133211
2023/07/04 05:03:09.939, True, 0.997, 0.133135
2023/07/04 05:03:10.435, True, 1.345, 0.132982
2023/07/04 05:03:10.939, True, 0.995, 0.132067
2023/07/04 05:03:11.443, True, 0.996, 0.133898
2023/07/04 05:03:11.939, True, 1.346, 0.132982
2023/07/04 05:03:12.443, True, 0.995, 0.131533
2023/07/04 05:03:12.947, True, 1.326, 0.132525
2023/07/04 05:03:13.443, True, 1.011, 0.132906
2023/07/04 05:03:13.947, True, 1.326, 0.132753
2023/07/04 05:03:14.451, True, 0.995, 0.133669
2023/07/04 05:03:14.947, True, 1.013, 0.132525
2023/07/04 05:03:15.451, True, 1.324, 0.133669
2023/07/04 05:03:15.956, True, 0.995, 0.131304
2023/07/04 05:03:16.451, True, 1.012, 0.132067
2023/07/04 05:03:16.955, True, 0.993, 0.132067
2023/07/04 05:03:17.459, True, 1.326, 0.130236
2023/07/04 05:03:17.955, True, 1.012, 0.132906
2023/07/04 05:03:18.459, True, 1.325, 0.133669
2023/07/04 05:03:18.964, True, 0.995, 0.133822
2023/07/04 05:03:19.459, True, 1.011, 0.131991
2023/07/04 05:03:19.963, True, 0.994, 0.131456
2023/07/04 05:03:20.459, True, 1.348, 0.134508
2023/07/04 05:03:20.963, True, 0.995, 0.133288
2023/07/04 05:03:21.467, True, 1.326, 0.132677
2023/07/04 05:03:21.963, True, 1.011, 0.131914
2023/07/04 05:03:22.467, True, 0.995, 0.133440
2023/07/04 05:03:22.971, True, 1.327, 0.133364
2023/07/04 05:03:23.467, True, 1.011, 0.130999
2023/07/04 05:03:23.971, True, 1.326, 0.131228
2023/07/04 05:03:24.475, True, 0.997, 0.130617
2023/07/04 05:03:24.971, True, 1.346, 0.132219
2023/07/04 05:03:25.475, True, 0.994, 0.130770
2023/07/04 05:03:25.979, True, 1.326, 0.133593
2023/07/04 05:03:26.483, True, 0.995, 0.131304
2023/07/04 05:03:26.979, True, 1.347, 0.132372
2023/07/04 05:03:27.483, True, 0.995, 0.132982
2023/07/04 05:03:27.987, True, 1.326, 0.133745
2023/07/04 05:03:28.483, True, 1.011, 0.132372
2023/07/04 05:03:28.987, True, 1.326, 0.132448
2023/07/04 05:03:29.492, True, 0.995, 0.133593
2023/07/04 05:03:29.987, True, 1.011, 0.131838
2023/07/04 05:03:30.491, True, 1.326, 0.132906
2023/07/04 05:03:30.995, True, 1.327, 0.132601
2023/07/04 05:03:31.491, True, 1.010, 0.131838
2023/07/04 05:03:31.995, True, 1.326, 0.131762
2023/07/04 05:03:32.499, True, 0.996, 0.132982
2023/07/04 05:03:32.996, True, 1.346, 0.132525
2023/07/04 05:03:33.499, True, 0.995, 0.131533
2023/07/04 05:03:34.003, True, 0.995, 0.133745
2023/07/04 05:03:34.507, True, 1.327, 0.131991
2023/07/04 05:03:35.003, True, 1.011, 0.131609
2023/07/04 05:03:35.507, True, 1.326, 0.131609
2023/07/04 05:03:36.011, True, 1.326, 0.130922
2023/07/04 05:03:36.507, True, 1.011, 0.133211
2023/07/04 05:03:37.012, True, 0.996, 0.130694
2023/07/04 05:03:37.515, True, 1.324, 0.132143
2023/07/04 05:03:38.019, True, 0.995, 0.133059
2023/07/04 05:03:38.515, True, 1.348, 0.132525
2023/07/04 05:03:39.019, True, 0.996, 0.130770
2023/07/04 05:03:39.523, True, 0.994, 0.134127
2023/07/04 05:03:40.020, True, 1.348, 0.132448
2023/07/04 05:03:40.523, True, 0.995, 0.131685
2023/07/04 05:03:41.028, True, 1.326, 0.131762
2023/07/04 05:03:41.523, True, 1.011, 0.132219
2023/07/04 05:03:42.028, True, 1.326, 0.134585
2023/07/04 05:03:42.531, True, 0.995, 0.130617
2023/07/04 05:03:43.036, True, 1.327, 0.131609
2023/07/04 05:03:43.531, True, 1.011, 0.131151
2023/07/04 05:03:44.035, True, 1.326, 0.130770
2023/07/04 05:03:44.531, True, 1.011, 0.135042
2023/07/04 05:03:45.035, True, 0.995, 0.129015
2023/07/04 05:03:45.540, True, 1.326, 0.132372
2023/07/04 05:03:46.044, True, 0.995, 0.130312
2023/07/04 05:03:46.539, True, 1.348, 0.130846
2023/07/04 05:03:47.044, True, 0.995, 0.131533
2023/07/04 05:03:47.547, True, 0.995, 0.132982
2023/07/04 05:03:48.044, True, 1.011, 0.132830
2023/07/04 05:03:48.548, True, 1.327, 0.131075
2023/07/04 05:03:49.051, True, 0.995, 0.131609
2023/07/04 05:03:49.547, True, 1.011, 0.133745
2023/07/04 05:03:50.052, True, 1.326, 0.132601
2023/07/04 05:03:50.555, True, 0.995, 0.130541
2023/07/04 05:03:51.051, True, 1.348, 0.130922
2023/07/04 05:03:51.555, True, 0.995, 0.132677
2023/07/04 05:03:52.059, True, 1.326, 0.132219
2023/07/04 05:03:52.555, True, 1.011, 0.130007
2023/07/04 05:03:53.059, True, 1.326, 0.134966
2023/07/04 05:03:53.563, True, 0.995, 0.132677
2023/07/04 05:03:54.059, True, 1.348, 0.130617
2023/07/04 05:03:54.563, True, 0.994, 0.131151
2023/07/04 05:03:55.067, True, 0.995, 0.130465
2023/07/04 05:03:55.571, True, 1.326, 0.128862
2023/07/04 05:03:56.067, True, 1.011, 0.132067
2023/07/04 05:03:56.572, True, 0.995, 0.133135
2023/07/04 05:03:57.075, True, 1.326, 0.131685
2023/07/04 05:03:57.572, True, 1.011, 0.131991
2023/07/04 05:03:58.075, True, 0.994, 0.131533
2023/07/04 05:03:58.579, True, 1.328, 0.132448
2023/07/04 05:03:59.075, True, 1.010, 0.130083
2023/07/04 05:03:59.579, True, 0.995, 0.130922
2023/07/04 05:04:00.083, True, 1.327, 0.130617
2023/07/04 05:04:00.580, True, 1.350, 0.131609
2023/07/04 05:04:01.083, True, 0.993, 0.130465
2023/07/04 05:04:01.587, True, 0.995, 0.129778
2023/07/04 05:04:02.083, True, 1.348, 0.132372
2023/07/04 05:04:02.588, True, 0.995, 0.128634
2023/07/04 05:04:03.092, True, 1.327, 0.131991
2023/07/04 05:04:03.588, True, 1.012, 0.133593
2023/07/04 05:04:04.091, True, 0.994, 0.131533
2023/07/04 05:04:04.588, True, 1.348, 0.131914
2023/07/04 05:04:05.091, True, 0.995, 0.132753
2023/07/04 05:04:05.595, True, 1.326, 0.132067
2023/07/04 05:04:06.092, True, 1.011, 0.130388
2023/07/04 05:04:06.595, True, 0.994, 0.132525
2023/07/04 05:04:07.099, True, 0.996, 0.132677
2023/07/04 05:04:07.595, True, 1.348, 0.130922
2023/07/04 05:04:08.099, True, 0.994, 0.132143
2023/07/04 05:04:08.603, True, 1.326, 0.130846
2023/07/04 05:04:09.108, True, 0.995, 0.133059
2023/07/04 05:04:09.603, True, 1.349, 0.128862
2023/07/04 05:04:10.108, True, 1.325, 0.130922
2023/07/04 05:04:10.611, True, 0.995, 0.131380